RASAT

Last updated on Mon Jun 22 2026 00:02:51 GMT+0000 (Coordinated Universal Time)

1 37791U 11044D 26172.52968278 .00000225 00000+0 47487-4 0 9994 2 37791 98.0574 263.8605 0020577 174.9075 196.0613 14.68169242793824
UTC large
Height (km)
Speed (km/s)
/
Latitude / Longitude
Inclination (degrees)
Orbital Period (minutes)
Azimuth
Elevation
Range (km)
Doppler Factor

Next 0 passes for location: London (51.5072 / 0.1276)

No passes found over London.
RASAT